Index of /20260412/WXO-DD/model_gdps/15km/12/035
Name Last modified Size Description
Parent Directory -
20260412T12Z_MSC_GDPS_AirTemp_AGL-120m_LatLon0.15_PT035H.grib2 2026-04-12 16:07 912K
20260412T12Z_MSC_GDPS_AirTemp_AGL-2m_LatLon0.15_PT035H.grib2 2026-04-12 16:07 1.2M
20260412T12Z_MSC_GDPS_AirTemp_AGL-40m_LatLon0.15_PT035H.grib2 2026-04-12 16:07 936K
20260412T12Z_MSC_GDPS_AirTemp_AGL-80m_LatLon0.15_PT035H.grib2 2026-04-12 16:07 924K
20260412T12Z_MSC_GDPS_Albedo_Sfc_LatLon0.15_PT035H.grib2 2026-04-12 16:07 246K
20260412T12Z_MSC_GDPS_ConvectivePrecip-Accum_Sfc_LatLon0.15_PT035H.grib2 2026-04-12 16:07 2.5M
20260412T12Z_MSC_GDPS_DewPointDepression_AGL-2m_LatLon0.15_PT035H.grib2 2026-04-12 16:07 749K
20260412T12Z_MSC_GDPS_DewPoint_AGL-2m_LatLon0.15_PT035H.grib2 2026-04-12 16:07 607K
20260412T12Z_MSC_GDPS_DownwardLongwaveRadiationFlux-Accum_Sfc_LatLon0.15_PT035H.grib2 2026-04-12 16:07 784K
20260412T12Z_MSC_GDPS_DownwardShortwaveRadiationFlux-Accum_Sfc_LatLon0.15_PT035H.grib2 2026-04-12 16:07 949K
20260412T12Z_MSC_GDPS_FreezingRain-Accum1h_Sfc_LatLon0.15_PT035H.grib2 2026-04-12 16:07 13K
20260412T12Z_MSC_GDPS_FreezingRain-Accum_Sfc_LatLon0.15_PT035H.grib2 2026-04-12 16:07 122K
20260412T12Z_MSC_GDPS_IcePellets-Accum1h_Sfc_LatLon0.15_PT035H.grib2 2026-04-12 16:07 9.1K
20260412T12Z_MSC_GDPS_IcePellets-Accum_Sfc_LatLon0.15_PT035H.grib2 2026-04-12 16:07 55K
20260412T12Z_MSC_GDPS_LatentHeatNetFlux_Sfc_LatLon0.15_PT035H.grib2 2026-04-12 16:07 637K
20260412T12Z_MSC_GDPS_NetLongwaveRadiationFlux-Accum_Sfc_LatLon0.15_PT035H.grib2 2026-04-12 16:07 1.0M
20260412T12Z_MSC_GDPS_NetShortwaveRadiationFlux-Accum_Sfc_LatLon0.15_PT035H.grib2 2026-04-12 16:07 927K
20260412T12Z_MSC_GDPS_O3MixingRatio_LatLon0.15_PT035H.grib2 2026-04-12 17:05 2.0M
20260412T12Z_MSC_GDPS_O3_EAtm_LatLon0.15_PT035H.grib2 2026-04-12 17:05 2.1M
20260412T12Z_MSC_GDPS_PlanetaryBoundaryLayerHeight_Sfc_LatLon0.15_PT035H.grib2 2026-04-12 16:07 2.4M
20260412T12Z_MSC_GDPS_Precip-Accum1h_Sfc_LatLon0.15_PT035H.grib2 2026-04-12 16:07 3.1M
20260412T12Z_MSC_GDPS_Precip-Accum_Sfc_LatLon0.15_PT035H.grib2 2026-04-12 16:07 4.2M
20260412T12Z_MSC_GDPS_PrecipRate_Sfc_LatLon0.15_PT035H.grib2 2026-04-12 16:07 2.8M
20260412T12Z_MSC_GDPS_Pressure_MSL_LatLon0.15_PT035H.grib2 2026-04-12 16:07 817K
20260412T12Z_MSC_GDPS_Pressure_Sfc_LatLon0.15_PT035H.grib2 2026-04-12 16:07 1.1M
20260412T12Z_MSC_GDPS_RadiativeTemp_Sfc_LatLon0.15_PT035H.grib2 2026-04-12 16:07 659K
20260412T12Z_MSC_GDPS_Rain-Accum1h_Sfc_LatLon0.15_PT035H.grib2 2026-04-12 16:07 1.4M
20260412T12Z_MSC_GDPS_Rain-Accum_Sfc_LatLon0.15_PT035H.grib2 2026-04-12 16:07 3.3M
20260412T12Z_MSC_GDPS_RelativeHumidity_AGL-2m_LatLon0.15_PT035H.grib2 2026-04-12 16:07 1.0M
20260412T12Z_MSC_GDPS_Runoff-Accum_Sfc_LatLon0.15_PT035H.grib2 2026-04-12 16:07 62K
20260412T12Z_MSC_GDPS_SensibleHeatNetFlux_Sfc_LatLon0.15_PT035H.grib2 2026-04-12 16:07 590K
20260412T12Z_MSC_GDPS_Snow-Accum1h_Sfc_LatLon0.15_PT035H.grib2 2026-04-12 16:07 840K
20260412T12Z_MSC_GDPS_Snow-Accum_Sfc_LatLon0.15_PT035H.grib2 2026-04-12 16:07 1.7M
20260412T12Z_MSC_GDPS_SnowDepth_Sfc_LatLon0.15_PT035H.grib2 2026-04-12 16:07 1.8M
20260412T12Z_MSC_GDPS_SoilTemp_DBS-0to10cm_LatLon0.15_PT035H.grib2 2026-04-12 16:07 502K
20260412T12Z_MSC_GDPS_SoilTemp_Sfc_LatLon0.15_PT035H.grib2 2026-04-12 16:07 573K
20260412T12Z_MSC_GDPS_SoilVolumetricWaterContent_DBS-0to10cm_LatLon0.15_PT035H.grib2 2026-04-12 16:07 551K
20260412T12Z_MSC_GDPS_SoilVolumetricWaterContent_DBS-0to1cm_LatLon0.15_PT035H.grib2 2026-04-12 16:07 651K
20260412T12Z_MSC_GDPS_SpecificHumidity_AGL-120m_LatLon0.15_PT035H.grib2 2026-04-12 16:07 1.1M
20260412T12Z_MSC_GDPS_SpecificHumidity_AGL-2m_LatLon0.15_PT035H.grib2 2026-04-12 16:07 1.2M
20260412T12Z_MSC_GDPS_SpecificHumidity_AGL-40m_LatLon0.15_PT035H.grib2 2026-04-12 16:07 1.1M
20260412T12Z_MSC_GDPS_SpecificHumidity_AGL-80m_LatLon0.15_PT035H.grib2 2026-04-12 16:07 1.1M
20260412T12Z_MSC_GDPS_SpecificHumidity_Sfc_LatLon0.15_PT035H.grib2 2026-04-12 16:07 616K
20260412T12Z_MSC_GDPS_TotalCloudCover_Sfc_LatLon0.15_PT035H.grib2 2026-04-12 16:07 821K
20260412T12Z_MSC_GDPS_UVIndex-ClearSky_Sfc_LatLon0.15_PT035H.grib2 2026-04-12 17:05 1.0M
20260412T12Z_MSC_GDPS_UVIndex_Sfc_LatLon0.15_PT035H.grib2 2026-04-12 17:05 1.5M
20260412T12Z_MSC_GDPS_UpwardLongwaveRadiationFlux_NTAtm_LatLon0.15_PT035H.grib2 2026-04-12 16:07 823K
20260412T12Z_MSC_GDPS_WindDir_AGL-10m_LatLon0.15_PT035H.grib2 2026-04-12 16:07 1.3M
20260412T12Z_MSC_GDPS_WindDir_AGL-120m_LatLon0.15_PT035H.grib2 2026-04-12 16:07 1.3M
20260412T12Z_MSC_GDPS_WindDir_AGL-40m_LatLon0.15_PT035H.grib2 2026-04-12 16:07 1.4M
20260412T12Z_MSC_GDPS_WindDir_AGL-80m_LatLon0.15_PT035H.grib2 2026-04-12 16:07 1.4M
20260412T12Z_MSC_GDPS_WindDir_IsbL-0700_LatLon0.15_PT035H.grib2 2026-04-12 16:07 1.6M
20260412T12Z_MSC_GDPS_WindGust-Max_AGL-10m_LatLon0.15_PT035H.grib2 2026-04-12 16:07 2.2M
20260412T12Z_MSC_GDPS_WindGust-Min_AGL-10m_LatLon0.15_PT035H.grib2 2026-04-12 16:07 2.2M
20260412T12Z_MSC_GDPS_WindGust_AGL-10m_LatLon0.15_PT035H.grib2 2026-04-12 16:07 2.2M
20260412T12Z_MSC_GDPS_WindSpeed_AGL-10m_LatLon0.15_PT035H.grib2 2026-04-12 16:07 1.1M
20260412T12Z_MSC_GDPS_WindSpeed_AGL-120m_LatLon0.15_PT035H.grib2 2026-04-12 16:07 1.3M
20260412T12Z_MSC_GDPS_WindSpeed_AGL-40m_LatLon0.15_PT035H.grib2 2026-04-12 16:07 1.2M
20260412T12Z_MSC_GDPS_WindSpeed_AGL-80m_LatLon0.15_PT035H.grib2 2026-04-12 16:07 1.3M
20260412T12Z_MSC_GDPS_WindSpeed_IsbL-0700_LatLon0.15_PT035H.grib2 2026-04-12 16:07 1.5M
20260412T12Z_MSC_GDPS_WindU_AGL-10m_LatLon0.15_PT035H.grib2 2026-04-12 16:07 1.3M
20260412T12Z_MSC_GDPS_WindU_AGL-120m_LatLon0.15_PT035H.grib2 2026-04-12 16:07 1.0M
20260412T12Z_MSC_GDPS_WindU_AGL-40m_LatLon0.15_PT035H.grib2 2026-04-12 16:07 971K
20260412T12Z_MSC_GDPS_WindU_AGL-80m_LatLon0.15_PT035H.grib2 2026-04-12 16:07 1.0M
20260412T12Z_MSC_GDPS_WindU_IsbL-0700_LatLon0.15_PT035H.grib2 2026-04-12 16:07 1.2M
20260412T12Z_MSC_GDPS_WindV_AGL-10m_LatLon0.15_PT035H.grib2 2026-04-12 16:07 1.3M
20260412T12Z_MSC_GDPS_WindV_AGL-120m_LatLon0.15_PT035H.grib2 2026-04-12 16:07 1.0M
20260412T12Z_MSC_GDPS_WindV_AGL-40m_LatLon0.15_PT035H.grib2 2026-04-12 16:07 969K
20260412T12Z_MSC_GDPS_WindV_AGL-80m_LatLon0.15_PT035H.grib2 2026-04-12 16:07 1.0M
20260412T12Z_MSC_GDPS_WindV_IsbL-0700_LatLon0.15_PT035H.grib2 2026-04-12 16:07 1.2M